Location: Ellingshausen
(50.5460°N, 10.4723°E)
Time: 15:06:34
(UTC+00:00)

Cosmos 540 Rocket - Pass Details

Date: 18 January 2026
Orbit: 736 x 747 km, 74.1° (Epoch: 16 February)

Event Time Altitude Azimuth Distance (km) Brightness Sun altitude
Exits shadow 04:40:35 17° 349° (N) 1,794 5.2 -23.2°
Maximum altitude 04:44:16 50° 60° (ENE) 940 4.2 -22.6°
Drops below altitude 10° 04:49:12 10° 136° (SE) 2,242 6.6 -21.9°
Sets 04:51:36 0° 141° (SE) 3,162 7.4 -21.5°
